Wenatchee, WA
on Wednesday, January 9, 2013

Wednesday
Previous Day Next Day
Daily Summary
 ActualAverageRecord
Temperature
Mean Temperature °F 27°F  
Max Temperature 41°F 32°F 48°F (1983)
Min Temperature 31°F 21°F -3°F (1974)
Degree Days
Heating Degree Days 29 38  
Month to date heating degree days 327 351  
Since 1 July heating degree days 2990 3449  
Cooling Degree Days 0 0  
Month to date cooling degree days 0 0  
Year to date cooling degree days 0 0  
Moisture
Dew Point 28°F   
Average Humidity 63    
Maximum Humidity 89    
Minimum Humidity 53    
Precipitation
Precipitation 0.00 in 0.07 in 0.51 in (1990)
Month to date precipitation 0.70 0.64  
Year to date precipitation 0.70 0.64  
Snow
Snow 0.00 in 0.60 in in ()
Month to date snowfall 8.6 5.5  
Since 1 July snowfall 38.9 30.4  
Snow Depth 7.00 in   
Wind
Wind Speed 8 mph   
Max Wind Speed 16 mph   
Max Gust Speed 24 mph   
Visibility 10 miles   
Events     

Key: T is trace of precipitation, MM is missing value
Source: NWS Daily Summary
Time(PST)TemperatureDew PointHumidity Pressure Visibility Wind DirectionWind SpeedGust SpeedPrecipitationEvents Conditions
12:55 AM 34.0°F 30.9°F 89% 29.75 in 8.0 miles WNW 3.5 mph - N/A   Clear
1:55 AM 37.0°F 32.0°F 82% 29.71 in 10.0 miles East 9.2 mph - N/A   Clear
2:55 AM 39.9°F 32.0°F 73% 29.69 in 10.0 miles Variable 3.5 mph - N/A   Clear
4:55 AM 46.0°F 30.0°F 54% 29.65 in 10.0 miles SE 8.1 mph - N/A   Clear
5:55 AM 44.1°F 30.0°F 58% 29.64 in 10.0 miles NE 11.5 mph 24.2 mph N/A   Clear
6:55 AM 45.0°F 28.9°F 53% 29.63 in 10.0 miles East 6.9 mph - N/A   Clear
7:55 AM 43.0°F 28.9°F 58% 29.60 in 10.0 miles East 16.1 mph - N/A   Clear
9:55 AM 45.0°F 28.9°F 53% 29.59 in 10.0 miles ENE 8.1 mph 17.3 mph N/A   Partly Cloudy
10:55 AM 44.1°F 30.0°F 58% 29.59 in 10.0 miles NE 3.5 mph - N/A   Partly Cloudy
11:55 AM 43.0°F 32.0°F 65% 29.60 in 10.0 miles NW 8.1 mph - N/A   Overcast
12:55 PM 42.1°F 33.1°F 70% 29.62 in 10.0 miles South 3.5 mph - N/A   Mostly Cloudy
1:55 PM 41.0°F 30.0°F 65% 29.64 in 10.0 miles NW 9.2 mph - N/A   Clear
2:55 PM 43.0°F 30.0°F 60% 29.66 in 10.0 miles North 4.6 mph - N/A   Clear
3:55 PM 41.0°F 28.0°F 60% 29.68 in 10.0 miles WNW 10.4 mph - N/A   Clear
4:55 PM 39.0°F 25.0°F 57% 29.70 in 10.0 miles WNW 13.8 mph - N/A   Clear
5:55 PM 39.0°F 25.0°F 57% 29.72 in 10.0 miles NW 15.0 mph - N/A   Clear
6:55 PM 37.0°F 24.1°F 59% 29.74 in 10.0 miles NNW 10.4 mph - N/A   Clear
8:55 PM 35.1°F 23.0°F 61% 29.78 in 10.0 miles WNW 8.1 mph - N/A   Clear
9:55 PM 35.1°F 21.9°F 59% 29.80 in 10.0 miles NNW 6.9 mph - N/A   Clear
10:55 PM 33.1°F 21.0°F 61% 29.82 in 10.0 miles NW 8.1 mph - N/A   Clear
11:55 PM 33.1°F 21.0°F 61% 29.82 in 10.0 miles WNW 10.4 mph - N/A   Clear
Moon Phase
Jan. 09 Jan. 11 Jan. 18 Jan. 26 Feb. 03
Sunrise:07:46 AM (PST) Moon Rise:05:31 AM (PST)1/9
Sunset:04:30 PM (PST) Moon Set:02:36 PM (PST)1/9

Copyright © 2014 The Weather Underground, Inc.